Year,Month,Day,Hour,Minute,Value (Times are PST for temperature in C)
2008,08,10,00,00,14.90
2008,08,10,00,01,14.90
2008,08,10,00,02,14.90
2008,08,10,00,03,14.90
2008,08,10,00,04,14.90
2008,08,10,00,05,14.90
2008,08,10,00,06,14.80
2008,08,10,00,07,14.80
2008,08,10,00,08,14.80
2008,08,10,00,09,14.80
2008,08,10,00,10,14.80
2008,08,10,00,11,14.80
2008,08,10,00,12,14.80
2008,08,10,00,13,14.80
2008,08,10,01,02,13.70
2008,08,10,01,03,13.70
2008,08,10,01,04,13.70
2008,08,10,01,05,13.70
2008,08,10,01,06,13.60
2008,08,10,01,07,13.60
2008,08,10,01,08,13.60
2008,08,10,01,09,13.50
2008,08,10,01,10,13.50
2008,08,10,01,11,13.50
2008,08,10,01,12,13.50
2008,08,10,01,13,13.50
2008,08,10,01,14,13.40
2008,08,10,01,15,13.40
2008,08,10,01,16,13.40
2008,08,10,01,17,13.30
2008,08,10,01,18,13.30
2008,08,10,01,19,13.30
2008,08,10,01,20,13.30
2008,08,10,01,21,13.30
2008,08,10,01,22,13.30
2008,08,10,01,23,13.30
2008,08,10,01,24,13.30
2008,08,10,01,25,13.20
2008,08,10,01,26,13.20
2008,08,10,01,27,13.20
2008,08,10,01,28,13.20
2008,08,10,01,29,13.20
2008,08,10,01,30,13.20
2008,08,10,01,31,13.20
2008,08,10,01,32,13.10
2008,08,10,01,33,13.10
2008,08,10,01,34,13.10
2008,08,10,01,35,13.10
2008,08,10,01,36,13.10
2008,08,10,01,37,13.10
2008,08,10,01,38,13.10
2008,08,10,01,39,13.10
2008,08,10,01,40,13.10
2008,08,10,01,41,13.10
2008,08,10,01,42,13.10
2008,08,10,01,43,13.10
2008,08,10,01,44,13.10
2008,08,10,01,45,13.10
2008,08,10,01,46,13.10
2008,08,10,01,47,13.00
2008,08,10,01,48,13.00
2008,08,10,01,49,13.00
2008,08,10,01,50,12.90
2008,08,10,01,51,12.90
2008,08,10,01,52,12.90
2008,08,10,01,53,12.90
2008,08,10,01,54,12.80
2008,08,10,01,55,12.80
2008,08,10,01,56,12.80
2008,08,10,01,57,12.80
2008,08,10,01,58,12.80
2008,08,10,01,59,12.80
2008,08,10,02,00,12.80
2008,08,10,02,01,12.80
2008,08,10,02,02,12.80
2008,08,10,02,03,12.70
2008,08,10,02,04,12.70
2008,08,10,02,05,12.70
2008,08,10,02,06,12.70
2008,08,10,02,07,12.70
2008,08,10,02,08,12.70
2008,08,10,02,09,12.70
2008,08,10,02,10,12.70
2008,08,10,02,11,12.70
2008,08,10,02,12,12.70
2008,08,10,02,13,12.70
2008,08,10,02,14,12.70
2008,08,10,02,15,12.70
2008,08,10,02,16,12.70
2008,08,10,02,17,12.70
2008,08,10,02,18,12.70
2008,08,10,02,19,12.70
2008,08,10,02,20,12.70
2008,08,10,02,21,12.70
2008,08,10,02,22,12.70
2008,08,10,02,23,12.70
2008,08,10,02,24,12.70
2008,08,10,02,25,12.60
2008,08,10,02,26,12.60
2008,08,10,02,27,12.60
2008,08,10,02,28,12.60
2008,08,10,02,29,12.60
2008,08,10,02,30,12.60
2008,08,10,02,31,12.60
2008,08,10,02,32,12.60
2008,08,10,02,33,12.60
2008,08,10,02,34,12.50
2008,08,10,02,35,12.50
2008,08,10,02,36,12.50
2008,08,10,02,37,12.50
2008,08,10,02,38,12.50
2008,08,10,02,39,12.50
2008,08,10,02,40,12.50
2008,08,10,02,41,12.50
2008,08,10,02,42,12.50
2008,08,10,02,43,12.50
2008,08,10,02,44,12.50
2008,08,10,02,45,12.50
2008,08,10,02,46,12.40
2008,08,10,02,47,12.40
2008,08,10,02,48,12.40
2008,08,10,02,49,12.40
2008,08,10,02,50,12.40
2008,08,10,02,51,12.40
2008,08,10,02,52,12.40
2008,08,10,02,53,12.40
2008,08,10,02,54,12.40
2008,08,10,02,55,12.40
2008,08,10,02,56,12.30
2008,08,10,02,57,12.30
2008,08,10,02,58,12.30
2008,08,10,02,59,12.30
2008,08,10,03,00,12.30
2008,08,10,03,01,12.30
2008,08,10,03,02,12.30
2008,08,10,03,03,12.30
2008,08,10,03,04,12.30
2008,08,10,03,05,12.30
2008,08,10,03,06,12.30
2008,08,10,03,07,12.30
2008,08,10,03,08,12.30
2008,08,10,03,09,12.30
2008,08,10,03,10,12.20
2008,08,10,03,11,12.20
2008,08,10,03,12,12.20
2008,08,10,03,13,12.20
2008,08,10,03,14,12.20
2008,08,10,03,15,12.10
2008,08,10,03,16,12.10
2008,08,10,03,17,12.10
2008,08,10,03,18,12.10
2008,08,10,03,19,12.00
2008,08,10,03,20,12.00
2008,08,10,03,21,12.00
2008,08,10,03,22,12.00
2008,08,10,03,23,12.00
2008,08,10,03,24,11.90
2008,08,10,03,25,11.90
2008,08,10,03,26,11.90
2008,08,10,03,27,11.90
2008,08,10,03,28,11.90
2008,08,10,03,29,11.90
2008,08,10,03,30,11.80
2008,08,10,03,31,11.80
2008,08,10,03,32,11.80
2008,08,10,03,33,11.80
2008,08,10,03,34,11.80
2008,08,10,03,35,11.80
2008,08,10,03,36,11.80
2008,08,10,03,37,11.80
2008,08,10,03,38,11.80
2008,08,10,03,39,11.80
2008,08,10,03,40,11.80
2008,08,10,03,41,11.80
2008,08,10,03,42,11.80
2008,08,10,03,43,11.80
2008,08,10,03,44,11.80
2008,08,10,03,45,11.80
2008,08,10,03,46,11.80
2008,08,10,03,47,11.80
2008,08,10,03,48,11.80
2008,08,10,03,49,11.80
2008,08,10,03,50,11.80
2008,08,10,03,51,11.80
2008,08,10,03,52,11.80
2008,08,10,03,53,11.80
2008,08,10,03,54,11.80
2008,08,10,03,55,11.90
2008,08,10,03,56,11.90
2008,08,10,03,57,11.90
2008,08,10,03,58,11.90
2008,08,10,03,59,11.90
2008,08,10,04,00,11.90
2008,08,10,04,01,11.90
2008,08,10,04,02,11.90
2008,08,10,04,03,11.90
2008,08,10,04,04,11.90
2008,08,10,04,05,12.00
2008,08,10,04,06,12.00
2008,08,10,04,07,12.00
2008,08,10,04,08,12.00
2008,08,10,04,09,12.10
2008,08,10,04,10,12.10
2008,08,10,04,11,12.10
2008,08,10,04,12,12.10
2008,08,10,04,13,12.20
2008,08,10,04,14,12.20
2008,08,10,04,15,12.20
2008,08,10,04,16,12.20
2008,08,10,04,17,12.30
2008,08,10,04,18,12.30
2008,08,10,04,19,12.30
2008,08,10,04,20,12.30
2008,08,10,04,21,12.30
2008,08,10,04,22,12.30
2008,08,10,04,23,12.30
2008,08,10,04,24,12.30
2008,08,10,04,25,12.30
2008,08,10,04,26,12.40
2008,08,10,04,27,12.40
2008,08,10,04,28,12.40
2008,08,10,04,29,12.40
2008,08,10,04,30,12.40
2008,08,10,04,31,12.40
2008,08,10,04,32,12.40
2008,08,10,04,33,12.40
2008,08,10,04,34,12.50
2008,08,10,04,35,12.50
2008,08,10,04,36,12.50
2008,08,10,04,37,12.50
2008,08,10,04,38,12.50
2008,08,10,04,39,12.50
2008,08,10,04,40,12.50
2008,08,10,04,41,12.50
2008,08,10,04,42,12.50
2008,08,10,04,43,12.50
2008,08,10,04,44,12.50
2008,08,10,04,45,12.50
2008,08,10,04,46,12.50
2008,08,10,04,47,12.50
2008,08,10,04,48,12.50
2008,08,10,04,49,12.50
2008,08,10,04,50,12.50
2008,08,10,04,51,12.50
2008,08,10,04,52,12.50
2008,08,10,04,53,12.50
2008,08,10,04,54,12.50
2008,08,10,04,55,12.50
2008,08,10,04,56,12.50
2008,08,10,04,57,12.50
2008,08,10,04,58,12.50
2008,08,10,04,59,12.50
2008,08,10,05,00,12.50
2008,08,10,05,01,12.50
2008,08,10,05,02,12.50
2008,08,10,05,03,12.50
2008,08,10,05,04,12.50
2008,08,10,05,05,12.50
2008,08,10,05,06,12.50
2008,08,10,05,07,12.50
2008,08,10,05,08,12.50
2008,08,10,05,09,12.50
2008,08,10,05,10,12.50
2008,08,10,05,11,12.50
2008,08,10,05,12,12.50
2008,08,10,05,13,12.50
2008,08,10,05,14,12.50
2008,08,10,05,15,12.50
2008,08,10,05,16,12.40
2008,08,10,05,17,12.40
2008,08,10,05,18,12.40
2008,08,10,05,19,12.40
2008,08,10,05,20,12.40
2008,08,10,05,21,12.40
2008,08,10,05,22,12.40
2008,08,10,05,23,12.40
2008,08,10,05,24,12.40
2008,08,10,05,25,12.40
2008,08,10,05,26,12.40
2008,08,10,05,27,12.40
2008,08,10,05,28,12.40
2008,08,10,05,29,12.40
2008,08,10,05,30,12.40
2008,08,10,05,31,12.40
2008,08,10,05,32,12.40
2008,08,10,05,33,12.40
2008,08,10,05,34,12.40
2008,08,10,05,35,12.40
2008,08,10,05,36,12.40
2008,08,10,05,37,12.40
2008,08,10,05,38,12.40
2008,08,10,05,39,12.40
2008,08,10,05,40,12.40
2008,08,10,05,41,12.40
2008,08,10,05,42,12.40
2008,08,10,05,43,12.40
2008,08,10,05,44,12.30
2008,08,10,05,45,12.30
2008,08,10,05,46,12.30
2008,08,10,05,47,12.30
2008,08,10,05,48,12.30
2008,08,10,05,49,12.30
2008,08,10,05,50,12.30
2008,08,10,05,51,12.30
2008,08,10,05,52,12.30
2008,08,10,05,53,12.30
2008,08,10,05,54,12.30
2008,08,10,05,55,12.30
2008,08,10,05,56,12.30
2008,08,10,05,57,12.30
2008,08,10,05,58,12.30
2008,08,10,05,59,12.30
2008,08,10,06,00,12.30
2008,08,10,06,01,12.30
2008,08,10,06,02,12.30
2008,08,10,06,03,12.30
2008,08,10,06,04,12.30
2008,08,10,06,05,12.30
2008,08,10,06,06,12.30
2008,08,10,06,07,12.30
2008,08,10,06,08,12.30
2008,08,10,06,09,12.30
2008,08,10,06,10,12.30
2008,08,10,06,11,12.30
2008,08,10,06,12,12.30
2008,08,10,06,13,12.30
2008,08,10,06,14,12.30
2008,08,10,06,15,12.30
2008,08,10,06,16,12.30
2008,08,10,06,17,12.30
2008,08,10,06,18,12.30
2008,08,10,06,19,12.30
2008,08,10,06,20,12.30
2008,08,10,06,21,12.30
2008,08,10,06,22,12.30
2008,08,10,06,23,12.30
2008,08,10,06,24,12.30
2008,08,10,06,25,12.30
2008,08,10,06,26,12.30
2008,08,10,06,27,12.30
2008,08,10,06,28,12.30
2008,08,10,06,29,12.30
2008,08,10,06,30,12.30
2008,08,10,06,31,12.30
2008,08,10,06,32,12.30
2008,08,10,06,33,12.30
2008,08,10,06,34,12.30
2008,08,10,06,35,12.30
2008,08,10,06,36,12.30
2008,08,10,06,37,12.30
2008,08,10,06,38,12.30
2008,08,10,06,39,12.30
2008,08,10,06,40,12.30
2008,08,10,06,41,12.30
2008,08,10,06,42,12.30
2008,08,10,06,43,12.30
2008,08,10,06,44,12.30
2008,08,10,06,45,12.30
2008,08,10,06,46,12.30
2008,08,10,06,47,12.30
2008,08,10,06,48,12.30
2008,08,10,06,49,12.30
2008,08,10,06,50,12.30
2008,08,10,06,51,12.30
2008,08,10,06,52,12.30
2008,08,10,06,53,12.30
2008,08,10,06,54,12.30
2008,08,10,06,55,12.30
2008,08,10,06,56,12.30
2008,08,10,06,57,12.30
2008,08,10,06,58,12.30
2008,08,10,06,59,12.30
2008,08,10,07,00,12.30
2008,08,10,07,01,12.40
2008,08,10,07,02,12.40
2008,08,10,07,03,12.40
2008,08,10,07,04,12.40
2008,08,10,07,05,12.50
2008,08,10,07,06,12.50
2008,08,10,07,07,12.50
2008,08,10,07,08,12.50
2008,08,10,07,09,12.60
2008,08,10,07,10,12.60
2008,08,10,07,11,12.60
2008,08,10,07,12,12.70
2008,08,10,07,13,12.70
2008,08,10,07,14,12.70
2008,08,10,07,15,12.70
2008,08,10,07,16,12.70
2008,08,10,07,17,12.80
2008,08,10,07,18,12.80
2008,08,10,07,19,12.80
2008,08,10,07,20,12.80
2008,08,10,07,21,12.80
2008,08,10,07,22,12.80
2008,08,10,07,23,12.90
2008,08,10,07,24,12.90
2008,08,10,07,25,12.90
2008,08,10,07,26,13.00
2008,08,10,07,27,13.00
2008,08,10,07,28,13.00
2008,08,10,07,29,13.00
2008,08,10,07,30,13.10
2008,08,10,07,31,13.10
2008,08,10,07,32,13.10
2008,08,10,07,33,13.10
2008,08,10,07,34,13.20
2008,08,10,07,35,13.20
2008,08,10,07,36,13.20
2008,08,10,07,37,13.30
2008,08,10,07,38,13.30
2008,08,10,07,39,13.30
2008,08,10,07,40,13.40
2008,08,10,07,41,13.40
2008,08,10,07,42,13.50
2008,08,10,07,43,13.50
2008,08,10,07,44,13.60
2008,08,10,07,45,13.60
2008,08,10,07,46,13.60
2008,08,10,07,47,13.70
2008,08,10,07,48,13.70
2008,08,10,07,49,13.70
2008,08,10,07,50,13.80
2008,08,10,07,51,13.80
2008,08,10,07,52,13.80
2008,08,10,07,53,13.90
2008,08,10,07,54,13.90
2008,08,10,07,55,13.90
2008,08,10,07,56,14.00
2008,08,10,07,57,14.00
2008,08,10,07,58,14.10
2008,08,10,07,59,14.10
2008,08,10,08,00,14.20
2008,08,10,08,01,14.20
2008,08,10,08,02,14.20
2008,08,10,08,03,14.20
2008,08,10,08,04,14.30
2008,08,10,08,05,14.40
2008,08,10,08,06,14.40
2008,08,10,08,07,14.50
2008,08,10,08,08,14.50
2008,08,10,08,09,14.50
2008,08,10,08,10,14.60
2008,08,10,08,11,14.60
2008,08,10,08,12,14.70
2008,08,10,08,13,14.70
2008,08,10,08,14,14.80
2008,08,10,08,15,14.80
2008,08,10,08,16,14.80
2008,08,10,08,17,14.90
2008,08,10,08,18,14.90
2008,08,10,08,19,15.00
2008,08,10,08,20,15.00
2008,08,10,08,21,15.10
2008,08,10,08,22,15.10
2008,08,10,08,23,15.10
2008,08,10,08,24,15.20
2008,08,10,08,25,15.20
2008,08,10,08,26,15.20
2008,08,10,08,27,15.30
2008,08,10,08,28,15.30
2008,08,10,08,29,15.30
2008,08,10,08,30,15.30
2008,08,10,08,31,15.30
2008,08,10,08,32,15.30
2008,08,10,08,33,15.30
2008,08,10,08,34,15.30
2008,08,10,08,35,15.30
2008,08,10,08,36,15.30
2008,08,10,08,37,15.30
2008,08,10,08,38,15.20
2008,08,10,08,39,15.20
2008,08,10,08,40,15.20
2008,08,10,08,41,15.20
2008,08,10,08,42,15.20
2008,08,10,08,43,15.20
2008,08,10,08,44,15.20
2008,08,10,08,45,15.20
2008,08,10,08,46,15.20
2008,08,10,08,47,15.20
2008,08,10,08,48,15.20
2008,08,10,08,49,15.20
2008,08,10,08,50,15.20
2008,08,10,08,51,15.20
2008,08,10,08,52,15.20
2008,08,10,08,53,15.20
2008,08,10,08,54,15.20
2008,08,10,08,55,15.20
2008,08,10,08,56,15.20
2008,08,10,08,57,15.30
2008,08,10,08,58,15.30
2008,08,10,08,59,15.30
2008,08,10,09,00,15.30
2008,08,10,09,01,15.30
2008,08,10,09,02,15.40
2008,08,10,09,03,15.40
2008,08,10,09,04,15.40
2008,08,10,09,05,15.40
2008,08,10,09,06,15.50
2008,08,10,09,07,15.50
2008,08,10,09,08,15.60
2008,08,10,09,09,15.60
2008,08,10,09,10,15.60
2008,08,10,09,11,15.60
2008,08,10,09,12,15.60
2008,08,10,09,13,15.60
2008,08,10,09,14,15.60
2008,08,10,09,15,15.60
2008,08,10,09,16,15.60
2008,08,10,09,17,15.70
2008,08,10,09,18,15.70
2008,08,10,09,19,15.80
2008,08,10,09,20,15.80
2008,08,10,09,21,15.80
2008,08,10,09,22,15.80
2008,08,10,09,23,15.90
2008,08,10,09,24,16.00
2008,08,10,09,25,16.10
2008,08,10,09,26,16.20
2008,08,10,09,27,16.30
2008,08,10,09,28,16.30
2008,08,10,09,29,16.40
2008,08,10,09,30,16.40
2008,08,10,09,31,16.40
2008,08,10,09,32,16.40
2008,08,10,09,33,16.40
2008,08,10,09,34,16.40
2008,08,10,09,35,16.50
2008,08,10,09,36,16.60
2008,08,10,09,37,16.60
2008,08,10,09,38,16.70
2008,08,10,09,39,16.70
2008,08,10,09,40,16.70
2008,08,10,09,41,16.70
2008,08,10,09,42,16.70
2008,08,10,09,43,16.70
2008,08,10,09,44,16.70
2008,08,10,09,45,16.70
2008,08,10,09,46,16.80
2008,08,10,09,47,16.80
2008,08,10,09,48,16.90
2008,08,10,09,49,16.80
2008,08,10,09,50,16.80
2008,08,10,09,51,16.80
2008,08,10,09,52,16.80
2008,08,10,09,53,16.70
2008,08,10,09,54,16.70
2008,08,10,09,55,16.70
2008,08,10,09,56,16.80
2008,08,10,09,57,16.80
2008,08,10,09,58,16.80
2008,08,10,09,59,16.90
2008,08,10,10,00,16.90
2008,08,10,10,01,16.90
2008,08,10,10,02,17.00
2008,08,10,10,03,17.00
2008,08,10,10,04,17.00
2008,08,10,10,05,16.90
2008,08,10,10,06,16.90
2008,08,10,10,07,16.90
2008,08,10,10,08,16.90
2008,08,10,10,09,16.90
2008,08,10,10,10,16.90
2008,08,10,10,11,16.90
2008,08,10,10,12,16.80
2008,08,10,10,13,16.80
2008,08,10,10,14,16.80
2008,08,10,10,15,16.70
2008,08,10,10,16,16.70
2008,08,10,10,17,16.70
2008,08,10,10,18,16.60
2008,08,10,10,19,16.60
2008,08,10,10,20,16.50
2008,08,10,10,21,16.40
2008,08,10,10,22,16.40
2008,08,10,10,23,16.40
2008,08,10,10,24,16.40
2008,08,10,10,25,16.40
2008,08,10,10,26,16.40
2008,08,10,10,27,16.40
2008,08,10,10,28,16.40
2008,08,10,10,29,16.50
2008,08,10,10,30,16.60
2008,08,10,10,31,16.60
2008,08,10,10,32,16.60
2008,08,10,10,33,16.60
2008,08,10,10,34,16.60
2008,08,10,10,35,16.70
2008,08,10,10,36,16.70
2008,08,10,10,37,16.70
2008,08,10,10,38,16.80
2008,08,10,10,39,16.90
2008,08,10,10,40,17.00
2008,08,10,10,41,17.10
2008,08,10,10,42,17.20
2008,08,10,10,43,17.30
2008,08,10,10,44,17.40
2008,08,10,10,45,17.60
2008,08,10,10,46,17.70
2008,08,10,10,47,17.80
2008,08,10,10,48,17.80
2008,08,10,10,49,17.80
2008,08,10,10,50,17.70
2008,08,10,10,51,17.60
2008,08,10,10,52,17.60
2008,08,10,10,53,17.60
2008,08,10,10,54,17.60
2008,08,10,10,55,17.70
2008,08,10,10,56,17.70
2008,08,10,10,57,17.80
2008,08,10,10,58,17.90
2008,08,10,10,59,18.00
2008,08,10,11,00,18.10
2008,08,10,11,01,18.10
2008,08,10,11,02,18.20
2008,08,10,11,03,18.20
2008,08,10,11,04,18.20
2008,08,10,11,05,18.20
2008,08,10,11,06,18.20
2008,08,10,11,07,18.20
2008,08,10,11,08,18.20
2008,08,10,11,09,18.10
2008,08,10,11,10,18.10
2008,08,10,11,11,18.10
2008,08,10,11,12,18.10
2008,08,10,11,13,18.10
2008,08,10,11,14,18.10
2008,08,10,11,15,18.10
2008,08,10,11,16,18.10
2008,08,10,11,17,18.00
2008,08,10,11,18,17.90
2008,08,10,11,19,17.90
2008,08,10,11,20,17.90
2008,08,10,11,21,17.90
2008,08,10,11,22,17.80
2008,08,10,11,23,17.80
2008,08,10,11,24,17.90
2008,08,10,11,25,17.80
2008,08,10,11,26,17.80
2008,08,10,11,27,17.80
2008,08,10,11,28,17.80
2008,08,10,11,29,17.90
2008,08,10,11,30,17.90
2008,08,10,11,31,17.90
2008,08,10,11,32,17.90
2008,08,10,11,33,17.90
2008,08,10,11,34,17.90
2008,08,10,11,35,17.80
2008,08,10,11,36,17.80
2008,08,10,11,37,17.80
2008,08,10,11,38,17.80
2008,08,10,11,39,17.70
2008,08,10,11,40,17.60
2008,08,10,11,41,17.60
2008,08,10,11,42,17.60
2008,08,10,11,43,17.50
2008,08,10,11,44,17.50
2008,08,10,11,45,17.40
2008,08,10,11,46,17.40
2008,08,10,11,47,17.50
2008,08,10,11,48,17.40
2008,08,10,11,49,17.40
2008,08,10,11,50,17.40
2008,08,10,11,51,17.50
2008,08,10,11,52,17.50
2008,08,10,11,53,17.50
2008,08,10,11,54,17.50
2008,08,10,11,55,17.60
2008,08,10,11,56,17.60
2008,08,10,11,57,17.70
2008,08,10,11,58,17.70
2008,08,10,11,59,17.80
2008,08,10,12,00,17.90
2008,08,10,12,01,17.90
2008,08,10,12,02,18.00
2008,08,10,12,03,18.10
2008,08,10,12,04,18.10
2008,08,10,12,05,18.20
2008,08,10,12,06,18.20
2008,08,10,12,07,18.30
2008,08,10,12,08,18.40
2008,08,10,12,09,18.50
2008,08,10,12,10,18.60
2008,08,10,12,11,18.70
2008,08,10,12,12,18.80
2008,08,10,12,13,19.00
2008,08,10,12,14,19.10
2008,08,10,12,15,19.30
2008,08,10,12,16,19.40
2008,08,10,12,17,19.40
2008,08,10,12,18,19.50
2008,08,10,12,19,19.50
2008,08,10,12,20,19.50
2008,08,10,12,21,19.40
2008,08,10,12,22,19.40
2008,08,10,12,23,19.50
2008,08,10,12,24,19.50
2008,08,10,12,25,19.40
2008,08,10,12,26,19.40
2008,08,10,12,27,19.40
2008,08,10,12,28,19.40
2008,08,10,12,29,19.30
2008,08,10,12,30,19.30
2008,08,10,12,31,19.40
2008,08,10,12,32,19.40
2008,08,10,12,33,19.40
2008,08,10,12,34,19.50
2008,08,10,12,35,19.50
2008,08,10,12,36,19.50
2008,08,10,12,37,19.60
2008,08,10,12,38,19.60
2008,08,10,12,39,19.60
2008,08,10,12,40,19.60
2008,08,10,12,41,19.50
2008,08,10,12,42,19.60
2008,08,10,12,43,19.60
2008,08,10,12,44,19.60
2008,08,10,12,45,19.60
2008,08,10,12,46,19.70
2008,08,10,12,47,19.80
2008,08,10,12,48,19.90
2008,08,10,12,49,20.00
2008,08,10,12,50,20.10
2008,08,10,12,51,20.20
2008,08,10,12,52,20.20
2008,08,10,12,53,20.20
2008,08,10,12,54,20.20
2008,08,10,12,55,20.20
2008,08,10,12,56,20.20
2008,08,10,12,57,20.30
2008,08,10,12,58,20.30
2008,08,10,12,59,20.30
2008,08,10,13,00,20.30
2008,08,10,13,01,20.30
2008,08,10,13,02,20.20
2008,08,10,13,03,20.20
2008,08,10,13,04,20.20
2008,08,10,13,05,20.10
2008,08,10,13,06,20.00
2008,08,10,13,07,19.90
2008,08,10,13,08,19.80
2008,08,10,13,09,19.80
2008,08,10,13,10,19.70
2008,08,10,13,11,19.70
2008,08,10,13,12,19.70
2008,08,10,13,13,19.80
2008,08,10,13,14,19.90
2008,08,10,13,15,19.90
2008,08,10,13,16,20.00
2008,08,10,13,17,20.10
2008,08,10,13,18,20.00
2008,08,10,13,19,19.90
2008,08,10,13,20,19.90
2008,08,10,13,21,19.80
2008,08,10,13,22,19.80
2008,08,10,13,23,19.80
2008,08,10,13,24,19.70
2008,08,10,13,25,19.70
2008,08,10,13,26,19.70
2008,08,10,13,27,19.60
2008,08,10,13,28,19.70
2008,08,10,13,29,19.70
2008,08,10,13,30,19.70
2008,08,10,13,31,19.70
2008,08,10,13,32,19.70
2008,08,10,13,33,19.80
2008,08,10,13,34,19.80
2008,08,10,13,35,19.70
2008,08,10,13,36,19.70
2008,08,10,13,37,19.70
2008,08,10,13,38,19.70
2008,08,10,13,39,19.70
2008,08,10,13,40,19.70
2008,08,10,13,41,19.70
2008,08,10,13,42,19.60
2008,08,10,13,43,19.60
2008,08,10,13,44,19.60
2008,08,10,13,45,19.50
2008,08,10,13,46,19.40
2008,08,10,13,47,19.20
2008,08,10,13,48,19.10
2008,08,10,13,49,19.10
2008,08,10,13,50,19.10
2008,08,10,13,51,19.10
2008,08,10,13,52,19.20
2008,08,10,13,53,19.30
2008,08,10,13,54,19.40
2008,08,10,13,55,19.60
2008,08,10,13,56,19.70
2008,08,10,13,57,19.80
2008,08,10,13,58,19.90
2008,08,10,13,59,20.00
2008,08,10,14,00,20.10
2008,08,10,14,01,20.20
2008,08,10,14,02,20.30
2008,08,10,14,03,20.40
2008,08,10,14,04,20.40
2008,08,10,14,05,20.50
2008,08,10,14,06,20.50
2008,08,10,14,07,20.60
2008,08,10,14,08,20.60
2008,08,10,14,09,20.70
2008,08,10,14,10,20.80
2008,08,10,14,11,20.90
2008,08,10,14,12,21.00
2008,08,10,14,13,21.10
2008,08,10,14,14,21.20
2008,08,10,14,15,21.30
2008,08,10,14,16,21.30
2008,08,10,14,17,21.20
2008,08,10,14,18,21.20
2008,08,10,14,19,21.20
2008,08,10,14,20,21.20
2008,08,10,14,21,21.20
2008,08,10,14,22,21.10
2008,08,10,14,23,21.10
2008,08,10,14,24,21.00
2008,08,10,14,25,21.00
2008,08,10,14,26,20.90
2008,08,10,14,27,20.80
2008,08,10,14,28,20.80
2008,08,10,14,29,20.70
2008,08,10,14,30,20.70
2008,08,10,14,31,20.60
2008,08,10,14,32,20.60
2008,08,10,14,33,20.60
2008,08,10,14,34,20.60
2008,08,10,14,35,20.50
2008,08,10,14,36,20.50
2008,08,10,14,37,20.50
2008,08,10,14,38,20.50
2008,08,10,14,39,20.60
2008,08,10,14,40,20.60
2008,08,10,14,41,20.70
2008,08,10,14,42,20.70
2008,08,10,14,43,20.70
2008,08,10,14,44,20.80
2008,08,10,14,45,20.80
2008,08,10,14,46,20.80
2008,08,10,14,47,20.70
2008,08,10,14,48,20.70
2008,08,10,14,49,20.70
2008,08,10,14,50,20.70
2008,08,10,14,51,20.60
2008,08,10,14,52,20.60
2008,08,10,14,53,20.50
2008,08,10,14,54,20.50
2008,08,10,14,55,20.40
2008,08,10,14,56,20.30
2008,08,10,14,57,20.30
2008,08,10,14,58,20.20
2008,08,10,14,59,20.20
2008,08,10,15,00,20.20
2008,08,10,15,01,20.20
2008,08,10,15,02,20.10
2008,08,10,15,03,20.00
2008,08,10,15,04,19.90
2008,08,10,15,05,19.90
2008,08,10,15,06,19.80
2008,08,10,15,07,19.80
2008,08,10,15,08,19.80
2008,08,10,15,09,19.70
2008,08,10,15,10,19.60
2008,08,10,15,11,19.60
2008,08,10,15,12,19.60
2008,08,10,15,13,19.60
2008,08,10,15,14,19.60
2008,08,10,15,15,19.60
2008,08,10,15,16,19.70
2008,08,10,15,17,19.70
2008,08,10,15,18,19.70
2008,08,10,15,19,19.70
2008,08,10,15,20,19.80
2008,08,10,15,21,19.80
2008,08,10,15,22,19.80
2008,08,10,15,23,19.80
2008,08,10,15,24,19.70
2008,08,10,15,25,19.70
2008,08,10,15,26,19.60
2008,08,10,15,27,19.60
2008,08,10,15,28,19.50
2008,08,10,15,29,19.50
2008,08,10,15,30,19.50
2008,08,10,15,31,19.50
2008,08,10,15,32,19.50
2008,08,10,15,33,19.60
2008,08,10,15,34,19.60
2008,08,10,15,35,19.70
2008,08,10,15,36,19.70
2008,08,10,15,37,19.70
2008,08,10,15,38,19.70
2008,08,10,15,39,19.70
2008,08,10,15,40,19.70
2008,08,10,15,41,19.70
2008,08,10,15,42,19.80
2008,08,10,15,43,19.80
2008,08,10,15,44,19.90
2008,08,10,15,45,19.90
2008,08,10,15,46,19.90
2008,08,10,15,47,20.00
2008,08,10,15,48,20.10
2008,08,10,15,49,20.10
2008,08,10,15,50,20.10
2008,08,10,15,51,20.10
2008,08,10,15,52,20.20
2008,08,10,15,53,20.20
2008,08,10,15,54,20.20
2008,08,10,15,55,20.20
2008,08,10,15,56,20.20
2008,08,10,15,57,20.30
2008,08,10,15,58,20.30
2008,08,10,15,59,20.30
2008,08,10,16,00,20.30
2008,08,10,16,01,20.30
2008,08,10,16,02,20.30
2008,08,10,16,03,20.30
2008,08,10,16,04,20.30
2008,08,10,16,05,20.40
2008,08,10,16,06,20.30
2008,08,10,16,07,20.30
2008,08,10,16,08,20.20
2008,08,10,16,09,20.20
2008,08,10,16,10,20.20
2008,08,10,16,11,20.20
2008,08,10,16,12,20.20
2008,08,10,16,13,20.20
2008,08,10,16,14,20.30
2008,08,10,16,15,20.40
2008,08,10,16,16,20.50
2008,08,10,16,17,20.60
2008,08,10,16,18,20.80
2008,08,10,16,19,20.90
2008,08,10,16,20,21.00
2008,08,10,16,21,21.10
2008,08,10,16,22,21.20
2008,08,10,16,23,21.20
2008,08,10,16,24,21.10
2008,08,10,16,25,21.10
2008,08,10,16,26,21.10
2008,08,10,16,27,21.00
2008,08,10,16,28,21.00
2008,08,10,16,29,21.00
2008,08,10,16,30,21.00
2008,08,10,16,31,21.10
2008,08,10,16,32,21.10
2008,08,10,16,33,21.20
2008,08,10,16,34,21.20
2008,08,10,16,35,21.30
2008,08,10,16,36,21.30
2008,08,10,16,37,21.40
2008,08,10,16,38,21.60
2008,08,10,16,39,21.60
2008,08,10,16,40,21.70
2008,08,10,16,41,21.80
2008,08,10,16,42,21.90
2008,08,10,16,43,21.90
2008,08,10,16,44,22.00
2008,08,10,16,45,22.00
2008,08,10,16,46,22.00
2008,08,10,16,47,22.00
2008,08,10,16,48,22.00
2008,08,10,16,49,21.90
2008,08,10,16,50,21.80
2008,08,10,16,51,21.70
2008,08,10,16,52,21.60
2008,08,10,16,53,21.60
2008,08,10,16,54,21.60
2008,08,10,16,55,21.60
2008,08,10,16,56,21.60
2008,08,10,16,57,21.60
2008,08,10,16,58,21.60
2008,08,10,16,59,21.60
2008,08,10,17,00,21.60
2008,08,10,17,01,21.60
2008,08,10,17,02,21.70
2008,08,10,17,03,21.80
2008,08,10,17,04,21.90
2008,08,10,17,05,22.00
2008,08,10,17,06,22.00
2008,08,10,17,07,22.10
2008,08,10,17,08,22.10
2008,08,10,17,09,22.10
2008,08,10,17,10,22.10
2008,08,10,17,11,22.10
2008,08,10,17,12,22.10
2008,08,10,17,13,22.10
2008,08,10,17,14,22.10
2008,08,10,17,15,22.10
2008,08,10,17,16,22.20
2008,08,10,17,17,22.20
2008,08,10,17,18,22.30
2008,08,10,17,19,22.40
2008,08,10,17,20,22.50
2008,08,10,17,21,22.50
2008,08,10,17,22,22.60
2008,08,10,17,23,22.60
2008,08,10,17,24,22.60
2008,08,10,17,25,22.60
2008,08,10,17,26,22.60
2008,08,10,17,27,22.50
2008,08,10,17,28,22.40
2008,08,10,17,29,22.30
2008,08,10,17,30,22.20
2008,08,10,17,31,22.20
2008,08,10,17,32,22.20
2008,08,10,17,33,22.30
2008,08,10,17,34,22.30
2008,08,10,17,35,22.40
2008,08,10,17,36,22.40
2008,08,10,17,37,22.50
2008,08,10,17,38,22.50
2008,08,10,17,39,22.50
2008,08,10,17,40,22.40
2008,08,10,17,41,22.30
2008,08,10,17,42,22.20
2008,08,10,17,43,22.20
2008,08,10,17,44,22.20
2008,08,10,17,45,22.10
2008,08,10,17,46,22.10
2008,08,10,17,47,22.10
2008,08,10,17,48,22.10
2008,08,10,17,49,22.10
2008,08,10,17,50,22.10
2008,08,10,17,51,22.10
2008,08,10,17,52,22.10
2008,08,10,17,53,22.10
2008,08,10,17,54,22.00
2008,08,10,17,55,21.90
2008,08,10,17,56,21.90
2008,08,10,17,57,21.80
2008,08,10,17,58,21.70
2008,08,10,17,59,21.70
2008,08,10,18,00,21.70
2008,08,10,18,01,21.80
2008,08,10,18,02,21.80
2008,08,10,18,03,21.90
2008,08,10,18,04,21.90
2008,08,10,18,05,22.00
2008,08,10,18,06,22.00
2008,08,10,18,07,22.00